Погода в Октябрьском

Россия / Удмуртская Республика     56°50′21″N   53°19′25″E
темп.,
°C
ветер,
м/с
пор.,
м/с
влажн.,
%
обл.,
%
осадки,
мм/ч
давл.,
гПа
погр.,
м
11 мая, вт
вт1101:00+15с3369100 0.0 102332
04:00+13всв1176100 0.0 102411
07:00+16ссв116690 0.0 102585
10:00+21в1148100 0.0 1026530
13:00+24юв013856 0.0 10261245
16:00+25ююз123372 0.0 10262556
19:00+19св2359100 0.0 102755
22:00+17в236683 0.0 102838
12 мая, ср
ср1201:00+15св22765 0.0 102917
04:00+13св23905 0.0 102941
07:00+16всв34775 0.0 1029217
10:00+21всв33605 0.0 1029670
13:00+24в11450 0.0 10291559
16:00+25ссв123848 0.0 10282282
19:00+23ююв11493 0.0 102715
22:00+19юв115866 0.0 102813
13 мая, чт
чт1301:00+17вюв236665 0.0 102849
04:00+16в226856 0.0 102928
07:00+18в346114 0.0 1029161
10:00+23вюв33480 0.0 1028693
13:00+25ююв33370 0.0 10272250
16:00+26ю343423 0.0 10262289
19:00+23ююз34440 0.0 102657
22:00+18ююз22502 0.0 102611
14 мая, пт
пт1401:00+17ююв11505 0.0 102611
04:00+15юв22545 0.0 102611
07:00+19ююв245444 0.0 1026165
10:00+23ю4544100 0.0 1025642
13:00+25ююз5634100 0.0 10241564
16:00+26ююз5734100 0.0 10241703
19:00+22ююз48495 0.0 1023227
22:00+18ю335676 0.0 102233
15 мая, сб
сб1501:00+17ююз3863100 0.0 1022121
04:00+15юз356844 0.0 102271
07:00+19юз48616 0.0 1022244
10:00+24юз58405 0.1 1022772
13:00+27юз683136 0.0 10211398
16:00+27юз683229 0.0 10201476
19:00
22:00+19юз385817 0.0 1019111